Location: Hamayl? Da??
(36.7028°N, 30.1716°E)
Time: 07:27:10
(UTC+00:00)

Atlas Centaur 2 - Pass Details

Date: 04 August 2024
Orbit: 457 x 1271 km, 30.4° (Epoch: 10 September)

Event Time Altitude Azimuth Distance (km) Brightness Sun altitude
Rises 18:00:21 0° 226° (SW) 2,649 5.0 -11.2°
Reaches altitude 10° 18:02:46 10° 211° (SSW) 1,856 4.0 -11.6°
Maximum altitude 18:06:10 23° 158° (SSE) 1,348 2.8 -12.2°
Enters shadow 18:08:06 18° 126° (SE) 1,630 3.0 -12.5°
